7 * 24
多渠道服务支持
STARLINK-34405是美国于2025年6月28日发射的星链卫星,星链计划是太空探索技术公司(SpaceX)推出的低轨卫星互联网项目,旨在构建覆盖全球的卫星互联网星座,该卫星将和其他星链卫星协同,为全球用户提供高速低延迟的互联网接入服务。
美国
(US)
| 数据来源 | 国际轨道数据 | AOE轨道数据 |
| 星历时间 | 2026-09-04T14:00:02+0800 10小时前 查看轨道信息 | 2026-08-30T07:00:00+0800 5天前 查看轨道信息 |
| 半长轴 | 6899.345km | 6950.187km |
| 偏心率 | 0.0003021 | 0.0003387 |
| 轨道倾角 | 70.000° | 69.998° |
| 近地点辐角 | 274.143° | 264.704° |
| 升交点赤经 | 224.055° | 237.514° |
| 平近点角 | 29.370° | 195.429° |
| 近地点 | 519.123km | 569.695km |
| 远地点 | 523.293km | 574.405km |
| 周期 | 95.054分钟 | 96.107分钟 |
| 每日圈数 | 15.149246 | 14.98332 |
| 事件ID | 空间交会对象 | 最接近时刻(TCA) | 交会距离 | 交会风险概率(CRP) | 交会风险指数(CRI) | 操作 |
|---|---|---|---|---|---|---|
| CDM_260906-140606-191606-470421 |
STARLINK-32541
(61916)
STARLINK-34405
(64704) | 2026-09-06T 14:06:52+0000 |
1.025 km
极远距离 | 2.077557E-5 中风险 | 0.61 | |
| CDM_260903-041104-435106-470423 |
FORMOSAT7-2/COSMIC2-2
(44351)
STARLINK-34405
(64704) | 2026-09-03T 04:11:36+0000 |
1.483 km
极远距离 | 5.304902E-6 低风险 | 0.49 | |
| CDM_260907-060106-470406-575121 |
STARLINK-34405
(64704)
STARLINK-35260
(65751) | 2026-09-07T 06:01:59+0000 |
1.272 km
极远距离 | 3.530102E-6 低风险 | 0.46 | |
| CDM_260906-203905-314506-470421 |
STARLINK-4106
(53145)
STARLINK-34405
(64704) | 2026-09-06T 20:39:48+0000 |
2.062 km
极远距离 | 2.427869E-6 低风险 | 0.43 | |
| CDM_260906-154206-470406-647721 |
STARLINK-34405
(64704)
STARLINK-35354
(66477) | 2026-09-06T 15:42:21+0000 |
2.608 km
极远距离 | 1.435172E-6 低风险 | 0.38 | |
| CDM_260906-130705-619206-470421 |
ION SCV-010
(56192)
STARLINK-34405
(64704) | 2026-09-06T 13:07:45+0000 |
2.526 km
极远距离 | 1.377214E-6 低风险 | 0.38 | |
| CDM_260906-204605-386406-470421 |
STARLINK-4779
(53864)
STARLINK-34405
(64704) | 2026-09-06T 20:46:19+0000 |
2.124 km
极远距离 | 1.214555E-6 低风险 | 0.37 | |
| CDM_260906-131905-641106-470421 |
STARLINK-6279
(56411)
STARLINK-34405
(64704) | 2026-09-06T 13:19:50+0000 |
2.159 km
极远距离 | 1.177847E-6 低风险 | 0.36 |